Project,Study,Ord_Occ,Event_Num,Cast_ID,Date_Time_UTC,Date_Time_PST,Lat_Dec,Lon_Dec,Sta_ID,Line,Sta,Depth,Pressure,PrQ,Temp1,Temp1Q,Temp2,Temp2Q,TempAve,Salt1,Salt1Q,Salt1_Corr,Salt2,Salt2Q,Salt2_Corr,SaltAve_Corr,Ox1,Ox1Q,Ox1_CruiseCorr,Ox1_StaCorr,Ox2,Ox2Q,Ox2_CruiseCorr,Ox2_StaCorr,OxAve_StaCorr,Ox1uM,Ox1uM_CruiseCorr,Ox1uM_StaCorr,Ox2uM,Ox2uM_CruiseCorr,Ox2uM_StaCorr,OxAveuM_StaCorr,FluorV,FluorQ,EstChl_CruiseCorr,EstChl_StaCorr,ISUSV,ISUSQ,EstNO3_CruiseCorr,EstNO3_StaCorr,SigThetaTS1,SigThetaTS1Q,SigThetaTS2,SigThetaTS2Q,BAT,XMiss,TransQ,pH,pHQ,SPAR,SPARQ,PAR,PARQ,PoT1,PoT2,DynHt,SVA,OxSat1,OxSat2,BTL_Depth,BTL_Temp,SaltB,OxB,OxBuM,Chl-a,Phaeo,NO3,NO2,NH4,PO4,SIL
CalCOFI,2101RL,065,,2101_065d,01-Feb-2021 04:50:24,31-Jan-2021 20:50:24,32.82011,-123.90212,080.0 100.0,080.0,100.0,4.000,4.028,,14.0174,,14.0177,,14.0176,33.0144,,33.0202,33.0129,,33.0149,33.0176,5.6301,,5.8924,6.0669,5.5896,,5.9347,6.0656,6.0663,245.392,257.1365,136.1174,243.625,273.3322,136.5031,136.3103,0.1206,,0.7400,0.4308, ,, , ,24.6495,,24.6483,,0.8174,81.5185,,,,3.2943E+00,,1.0000E-12,,14.0169,14.0171,-0.0001,328.260,95.790,95.100,4,,33.0193,6.013,262.43,0.379,0.110,,,,,
CalCOFI,2101RL,065,,2101_065d,01-Feb-2021 04:50:30,31-Jan-2021 20:50:30,32.82010,-123.90210,080.0 100.0,080.0,100.0,5.000,5.035,,14.0175,,14.0177,,14.0176,33.0142,,33.0200,33.0128,,33.0148,33.0174,5.6469,,5.9099,6.0847,5.6043,,5.9503,6.0814,6.0831,246.125,257.9039,136.3453,244.269,274.1473,136.7092,136.5273,0.1200,,0.7351,0.4313, ,, , ,24.6493,,24.6483,,0.8172,81.5230,,,,3.2797E+00,,1.0000E-12,,14.0168,14.0169,0.0042,328.301,96.076,95.351,,,,,,,,,,,,
CalCOFI,2101RL,065,,2101_065d,01-Feb-2021 04:50:32,31-Jan-2021 20:50:32,32.82010,-123.90208,080.0 100.0,080.0,100.0,6.000,6.043,,14.0181,,14.0182,,14.0182,33.0142,,33.0200,33.0129,,33.0149,33.0175,5.6467,,5.9097,6.0845,5.6100,,5.9564,6.0875,6.0860,246.116,257.8944,136.3425,244.517,274.1373,136.7885,136.5655,0.1252,,0.7777,0.4256, ,, , ,24.6493,,24.6482,,0.8171,81.5235,,,,3.5185E+00,,1.0000E-12,,14.0172,14.0173,0.0075,328.335,96.074,95.449,,,,,,,,,,,,
CalCOFI,2101RL,065,,2101_065d,01-Feb-2021 04:50:33,31-Jan-2021 20:50:33,32.82010,-123.90208,080.0 100.0,080.0,100.0,7.000,7.050,,14.0185,,14.0188,,14.0187,33.0141,,33.0199,33.0126,,33.0146,33.0173,5.6309,,5.8932,6.0678,5.6003,,5.9461,6.0771,6.0725,245.427,257.1732,136.1283,244.091,273.3711,136.6522,136.3903,0.1252,,0.7777,0.4256, ,, , ,24.6491,,24.6479,,0.8188,81.4903,,,,3.6778E+00,,1.0000E-12,,14.0175,14.0178,0.0108,328.377,95.805,95.283,7,,,, ,,,,,,,
CalCOFI,2101RL,065,,2101_065d,01-Feb-2021 04:50:36,31-Jan-2021 20:50:36,32.82012,-123.90208,080.0 100.0,080.0,100.0,8.000,8.057,,14.0182,,14.0182,,14.0182,33.0140,,33.0198,33.0126,,33.0146,33.0172,5.6402,,5.9029,6.0776,5.5956,,5.9411,6.0720,6.0748,245.831,257.5961,136.2539,243.886,273.8203,136.5866,136.4203,0.1205,,0.7392,0.4309, ,, , ,24.6491,,24.6481,,0.8177,81.5127,,,,3.6947E+00,,1.0000E-12,,14.0170,14.0171,0.0141,328.404,95.962,95.202,,,,,,,,,,,,
CalCOFI,2101RL,065,,2101_065d,01-Feb-2021 04:50:37,31-Jan-2021 20:50:37,32.82012,-123.90207,080.0 100.0,080.0,100.0,9.000,9.064,,14.0187,,14.0190,,14.0189,33.0143,,33.0201,33.0128,,33.0148,33.0175,5.6143,,5.8758,6.0502,5.5932,,5.9385,6.0695,6.0599,244.701,256.4132,135.9025,243.783,272.5637,136.5537,136.2281,0.1246,,0.7728,0.4264, ,, , ,24.6493,,24.6481,,0.8185,81.4963,,,,3.6947E+00,,1.0000E-12,,14.0174,14.0177,0.0174,328.417,95.523,95.164,,,,,,,,,,,,
CalCOFI,2101RL,065,,2101_065d,01-Feb-2021 04:50:40,31-Jan-2021 20:50:40,32.82013,-123.90206,080.0 100.0,080.0,100.0,10.000,10.071,,14.0188,,14.0190,,14.0189,33.0142,,33.0200,33.0128,,33.0148,33.0174,5.6271,,5.8892,6.0637,5.5940,,5.9394,6.0703,6.0670,245.260,256.9984,136.0763,243.820,273.1854,136.5655,136.3209,0.1145,,0.6900,0.4335, ,, , ,24.6492,,24.6481,,0.8178,81.5106,,,,3.6947E+00,,1.0000E-12,,14.0174,14.0176,0.0209,328.452,95.741,95.178,10,,,, ,,,,,,,
CalCOFI,2101RL,065,,2101_065d,01-Feb-2021 04:50:43,31-Jan-2021 20:50:43,32.82014,-123.90206,080.0 100.0,080.0,100.0,11.000,11.078,,14.0184,,14.0189,,14.0187,33.0142,,33.0200,33.0127,,33.0147,33.0174,5.6330,,5.8954,6.0700,5.5980,,5.9436,6.0746,6.0723,245.519,257.2695,136.1569,243.994,273.4734,136.6212,136.3891,0.1204,,0.7384,0.4310, ,, , ,24.6493,,24.6481,,0.8185,81.4955,,,,3.6947E+00,,1.0000E-12,,14.0169,14.0173,0.0244,328.472,95.841,95.246,,,,,,,,,,,,
CalCOFI,2101RL,065,,2101_065d,01-Feb-2021 04:50:44,31-Jan-2021 20:50:44,32.82014,-123.90206,080.0 100.0,080.0,100.0,12.000,12.085,,14.0197,,14.0196,,14.0197,33.0147,,33.0205,33.0131,,33.0151,33.0178,5.6401,,5.9028,6.0775,5.5903,,5.9355,6.0663,6.0719,245.829,257.5940,136.2533,243.657,273.8181,136.5134,136.3834,0.1191,,0.7277,0.4319, ,, , ,24.6495,,24.6483,,0.8185,81.4951,,,,3.6947E+00,,1.0000E-12,,14.0180,14.0179,0.0277,328.485,95.965,95.116,,,,,,,,,,,,
CalCOFI,2101RL,065,,2101_065d,01-Feb-2021 04:50:49,31-Jan-2021 20:50:49,32.82015,-123.90207,080.0 100.0,080.0,100.0,13.000,13.092,,14.0209,,14.0203,,14.0206,33.0151,,33.0209,33.0132,,33.0152,33.0181,5.6414,,5.9042,6.0789,5.5931,,5.9384,6.0693,6.0741,245.885,257.6526,136.2707,243.778,273.8804,136.5521,136.4114,0.1144,,0.6892,0.4335, ,, , ,24.6496,,24.6483,,0.8177,81.5127,,,,3.6210E+00,,1.0000E-12,,14.0190,14.0184,0.0316,328.505,95.990,95.164,,,,,,,,,,,,
CalCOFI,2101RL,065,,2101_065d,01-Feb-2021 04:50:54,31-Jan-2021 20:50:54,32.82017,-123.90208,080.0 100.0,080.0,100.0,14.000,14.100,,14.0241,,14.0238,,14.0240,33.0164,,33.0222,33.0147,,33.0167,33.0195,5.6421,,5.9049,6.0796,5.5947,,5.9401,6.0711,6.0754,245.915,257.6840,136.2800,243.850,273.9137,136.5751,136.4276,0.1125,,0.6736,0.4334, ,, , ,24.6499,,24.6487,,0.8171,81.5232,,,,3.0270E+00,,1.0000E-12,,14.0221,14.0218,0.0359,328.498,96.008,95.200,,,,,,,,,,,,
CalCOFI,2101RL,065,,2101_065d,01-Feb-2021 04:51:03,31-Jan-2021 20:51:03,32.82022,-123.90207,080.0 100.0,080.0,100.0,15.000,15.107,,14.0246,,14.0248,,14.0247,33.0166,,33.0224,33.0151,,33.0171,33.0198,5.6324,,5.8948,6.0694,5.5902,,5.9354,6.0662,6.0678,245.490,257.2391,136.1479,243.652,273.4411,136.5118,136.3299,0.1122,,0.6712,0.4333, ,, , ,24.6500,,24.6489,,0.8185,81.4950,,,,3.9095E+00,,1.0000E-12,,14.0225,14.0227,0.0412,328.517,95.843,95.125,,,,,,,,,,,,
CalCOFI,2101RL,065,,2101_065d,01-Feb-2021 04:51:10,31-Jan-2021 20:51:10,32.82024,-123.90205,080.0 100.0,080.0,100.0,16.000,16.114,,14.0223,,14.0227,,14.0225,33.0155,,33.0213,33.0142,,33.0162,33.0188,5.6405,,5.9032,6.0779,5.5950,,5.9404,6.0714,6.0747,245.845,257.6107,136.2582,243.861,273.8359,136.5786,136.4184,0.1155,,0.6982,0.4334, ,, , ,24.6497,,24.6486,,0.8175,81.5154,,,,3.6933E+00,,1.0000E-12,,14.0200,14.0204,0.0461,328.574,95.977,95.202,,,,,,,,,,,,
CalCOFI,2101RL,065,,2101_065d,01-Feb-2021 04:51:16,31-Jan-2021 20:51:16,32.82026,-123.90204,080.0 100.0,080.0,100.0,17.000,17.121,,14.0221,,14.0225,,14.0223,33.0157,,33.0215,33.0143,,33.0163,33.0189,5.6496,,5.9128,6.0876,5.5926,,5.9379,6.0688,6.0782,246.243,258.0274,136.3820,243.755,274.2785,136.5447,136.4634,0.1160,,0.7023,0.4333, ,, , ,24.6499,,24.6488,,0.8184,81.4970,,,,3.6947E+00,,1.0000E-12,,14.0196,14.0200,0.0499,328.584,96.132,95.161,,,,,,,,,,,,
CalCOFI,2101RL,065,,2101_065d,01-Feb-2021 04:51:18,31-Jan-2021 20:51:18,32.82030,-123.90198,080.0 100.0,080.0,100.0,18.000,18.128,,14.0216,,14.0215,,14.0216,33.0150,,33.0208,33.0132,,33.0152,33.0180,5.6321,,5.8945,6.0690,5.5997,,5.9454,6.0764,6.0727,245.479,257.2276,136.1444,244.068,273.4289,136.6449,136.3947,0.1184,,0.7220,0.4323, ,, , ,24.6495,,24.6482,,0.8173,81.5205,,,,3.4303E+00,,1.0000E-12,,14.0191,14.0190,0.0532,328.655,95.832,95.280,,,,,,,,,,,,
CalCOFI,2101RL,065,,2101_065d,01-Feb-2021 04:51:22,31-Jan-2021 20:51:22,32.82030,-123.90198,080.0 100.0,080.0,100.0,19.000,19.135,,14.0204,,14.0208,,14.0206,33.0145,,33.0203,33.0128,,33.0148,33.0176,5.6365,,5.8991,6.0737,5.5945,,5.9399,6.0708,6.0723,245.671,257.4286,136.2041,243.840,273.6424,136.5719,136.3880,0.1196,,0.7318,0.4316, ,, , ,24.6494,,24.6480,,0.8200,81.4641,,,,3.7588E+00,,1.0000E-12,,14.0177,14.0181,0.0586,328.688,95.905,95.189,,,,,,,,,,,,
CalCOFI,2101RL,065,,2101_065d,01-Feb-2021 04:51:26,31-Jan-2021 20:51:26,32.82030,-123.90198,080.0 100.0,080.0,100.0,20.000,20.143,,14.0140,,14.0126,,14.0133,33.0132,,33.0190,33.0116,,33.0136,33.0163,5.6263,,5.8884,6.0629,5.5972,,5.9428,6.0737,6.0683,245.224,256.9607,136.0652,243.959,273.1453,136.6100,136.3376,0.1208,,0.7416,0.4306, ,, , ,24.6497,,24.6488,,0.8183,81.5000,,,,3.6947E+00,,1.0000E-12,,14.0111,14.0097,0.0650,328.687,95.717,95.219,,,,,,,,,,,,
CalCOFI,2101RL,065,,2101_065d,01-Feb-2021 04:51:31,31-Jan-2021 20:51:31,32.82035,-123.90197,080.0 100.0,080.0,100.0,21.000,21.150,,14.0098,,14.0105,,14.0102,33.0126,,33.0184,33.0111,,33.0131,33.0158,5.6467,,5.9097,6.0845,5.5950,,5.9404,6.0714,6.0780,246.117,257.8955,136.3428,243.861,274.1384,136.5786,136.4607,0.1214,,0.7466,0.4301, ,, , ,24.6502,,24.6489,,0.8184,81.4978,,,,3.6947E+00,,1.0000E-12,,14.0068,14.0075,0.0697,328.672,96.057,95.177,21,,33.0105,5.933,258.94,0.440,0.146,,,,,
CalCOFI,2101RL,065,,2101_065d,01-Feb-2021 04:51:35,31-Jan-2021 20:51:35,32.82034,-123.90200,080.0 100.0,080.0,100.0,22.000,22.157,,13.9829,,13.9833,,13.9831,33.0087,,33.0145,33.0073,,33.0093,33.0119,5.6195,,5.8813,6.0557,5.5801,,5.9246,6.0554,6.0556,244.928,256.6508,135.9731,243.212,272.8162,136.3710,136.1721,0.1235,,0.7638,0.4278, ,, , ,24.6527,,24.6516,,0.8172,81.5215,,,,3.6947E+00,,1.0000E-12,,13.9798,13.9802,0.0738,328.455,95.539,94.869,,,,,,,,,,,,
CalCOFI,2101RL,065,,2101_065d,01-Feb-2021 04:51:38,31-Jan-2021 20:51:38,32.82034,-123.90200,080.0 100.0,080.0,100.0,23.000,23.164,,13.9776,,13.9777,,13.9777,33.0088,,33.0146,33.0076,,33.0096,33.0121,5.6368,,5.8994,6.0740,5.5807,,5.9253,6.0561,6.0651,245.683,257.4412,136.2079,243.239,273.6557,136.3797,136.2938,0.1224,,0.7548,0.4291, ,, , ,24.6540,,24.6530,,0.8187,81.4914,,,,3.6947E+00,,1.0000E-12,,13.9743,13.9745,0.0772,328.364,95.823,94.869,,,,,,,,,,,,
CalCOFI,2101RL,065,,2101_065d,01-Feb-2021 04:51:42,31-Jan-2021 20:51:42,32.82036,-123.90200,080.0 100.0,080.0,100.0,24.000,24.171,,13.9800,,13.9813,,13.9807,33.0088,,33.0146,33.0074,,33.0094,33.0120,5.6320,,5.8944,6.0689,5.5650,,5.9086,6.0392,6.0541,245.475,257.2234,136.1432,242.555,273.4244,136.1608,136.1520,0.1197,,0.7326,0.4315, ,, , ,24.6536,,24.6522,,0.8164,81.5379,,,,3.6615E+00,,1.0000E-12,,13.9765,13.9779,0.0805,328.434,95.746,94.609,,,,,,,,,,,,
CalCOFI,2101RL,065,,2101_065d,01-Feb-2021 04:51:43,31-Jan-2021 20:51:43,32.82037,-123.90199,080.0 100.0,080.0,100.0,25.000,25.179,,13.9682,,13.9681,,13.9682,33.0089,,33.0147,33.0074,,33.0094,33.0121,5.6349,,5.8974,6.0720,5.5706,,5.9145,6.0452,6.0586,245.598,257.3522,136.1814,242.795,273.5612,136.2376,136.2095,0.1257,,0.7818,0.4249, ,, , ,24.6560,,24.6549,,0.8168,81.5295,,,,3.3116E+00,,1.0000E-12,,13.9646,13.9646,0.0838,328.226,95.772,94.678,,,,,,,,,,,,
CalCOFI,2101RL,065,,2101_065d,01-Feb-2021 04:51:45,31-Jan-2021 20:51:45,32.82038,-123.90198,080.0 100.0,080.0,100.0,26.000,26.186,,13.9675,,13.9680,,13.9678,33.0098,,33.0156,33.0084,,33.0104,33.0130,5.6117,,5.8731,6.0475,5.5824,,5.9271,6.0579,6.0527,244.589,256.2960,135.8677,243.313,272.4392,136.4033,136.1355,0.1353,,0.8605,0.4048, ,, , ,24.6569,,24.6557,,0.8159,81.5481,,,,3.6607E+00,,1.0000E-12,,13.9638,13.9643,0.0871,328.171,95.378,94.880,,,,,,,,,,,,
CalCOFI,2101RL,065,,2101_065d,01-Feb-2021 04:51:50,31-Jan-2021 20:51:50,32.82041,-123.90197,080.0 100.0,080.0,100.0,27.000,27.193,,13.9713,,13.9720,,13.9717,33.0124,,33.0182,33.0104,,33.0124,33.0153,5.6497,,5.9129,6.0877,5.5555,,5.8985,6.0290,6.0584,246.242,258.0263,136.3817,242.137,274.2774,136.0271,136.2044,0.1265,,0.7884,0.4237, ,, , ,24.6582,,24.6565,,0.8145,81.5769,,,,3.6947E+00,,1.0000E-12,,13.9674,13.9682,0.0907,328.075,96.031,94.430,,,,,,,,,,,,
CalCOFI,2101RL,065,,2101_065d,01-Feb-2021 04:51:51,31-Jan-2021 20:51:51,32.82042,-123.90196,080.0 100.0,080.0,100.0,28.000,28.200,,13.9736,,13.9739,,13.9738,33.0144,,33.0202,33.0129,,33.0149,33.0176,5.6159,,5.8775,6.0519,5.5722,,5.9162,6.0469,6.0494,244.771,256.4865,135.9243,242.867,272.6416,136.2607,136.0925,0.1421,,0.9162,0.3834, ,, , ,24.6593,,24.6581,,0.8149,81.5685,,,,3.3980E+00,,1.0000E-12,,13.9696,13.9700,0.0940,328.000,95.463,94.720,,,,,,,,,,,,
CalCOFI,2101RL,065,,2101_065d,01-Feb-2021 04:51:52,31-Jan-2021 20:51:52,32.82042,-123.90196,080.0 100.0,080.0,100.0,29.000,29.208,,13.9751,,13.9755,,13.9753,33.0158,,33.0216,33.0145,,33.0165,33.0191,5.6023,,5.8633,6.0375,5.5657,,5.9093,6.0400,6.0388,244.177,255.8647,135.7396,242.582,271.9811,136.1695,135.9546,0.1376,,0.8793,0.3982, ,, , ,24.6601,,24.6590,,0.8150,81.5671,,,,3.5801E+00,,1.0000E-12,,13.9710,13.9714,0.0973,327.953,95.235,94.613,,,,,,,,,,,,
CalCOFI,2101RL,065,,2101_065d,01-Feb-2021 04:51:57,31-Jan-2021 20:51:57,32.82043,-123.90199,080.0 100.0,080.0,100.0,30.000,30.215,,13.9753,,13.9754,,13.9754,33.0160,,33.0218,33.0144,,33.0164,33.0191,5.6468,,5.9098,6.0846,5.5613,,5.9047,6.0353,6.0600,246.116,257.8944,136.3425,242.390,274.1373,136.1081,136.2253,0.1352,,0.8596,0.4050, ,, , ,24.6603,,24.6589,,0.8172,81.5219,,,,2.8018E+00,,1.0000E-12,,13.9711,13.9712,0.1015,327.966,95.992,94.538,,,,,,,,,,,,
CalCOFI,2101RL,065,,2101_065d,01-Feb-2021 04:51:58,31-Jan-2021 20:51:58,32.82044,-123.90198,080.0 100.0,080.0,100.0,31.000,31.222,,13.9765,,13.9768,,13.9767,33.0169,,33.0227,33.0157,,33.0177,33.0202,5.6289,,5.8911,6.0657,5.5770,,5.9213,6.0521,6.0589,245.338,257.0800,136.1006,243.073,273.2721,136.3266,136.2136,0.1336,,0.8465,0.4092, ,, , ,24.6607,,24.6597,,0.8168,81.5311,,,,3.6940E+00,,1.0000E-12,,13.9721,13.9724,0.1051,327.948,95.692,94.808,,,,,,,,,,,,
CalCOFI,2101RL,065,,2101_065d,01-Feb-2021 04:51:59,31-Jan-2021 20:51:59,32.82045,-123.90199,080.0 100.0,080.0,100.0,32.000,32.229,,13.9806,,13.9809,,13.9808,33.0202,,33.0260,33.0187,,33.0207,33.0234,5.6198,,5.8816,6.0560,5.5737,,5.9178,6.0486,6.0523,244.939,256.6623,135.9765,242.932,272.8284,136.2814,136.1290,0.1423,,0.9178,0.3827, ,, , ,24.6624,,24.6612,,0.8186,81.4931,,,,3.6947E+00,,1.0000E-12,,13.9761,13.9763,0.1084,327.813,95.546,94.763,,,,,,,,,,,,
CalCOFI,2101RL,065,,2101_065d,01-Feb-2021 04:52:02,31-Jan-2021 20:52:02,32.82046,-123.90200,080.0 100.0,080.0,100.0,33.000,33.236,,13.9802,,13.9799,,13.9801,33.0198,,33.0256,33.0181,,33.0201,33.0229,5.6318,,5.8941,6.0687,5.5673,,5.9110,6.0417,6.0552,245.463,257.2109,136.1395,242.653,273.4111,136.1922,136.1659,0.1351,,0.8588,0.4053, ,, , ,24.6622,,24.6609,,0.8181,81.5041,,,,3.4050E+00,,1.0000E-12,,13.9755,13.9752,0.1117,327.864,95.750,94.651,,,,,,,,,,,,
CalCOFI,2101RL,065,,2101_065d,01-Feb-2021 04:52:05,31-Jan-2021 20:52:05,32.82046,-123.90200,080.0 100.0,080.0,100.0,34.000,34.244,,13.9708,,13.9707,,13.9708,33.0244,,33.0302,33.0222,,33.0242,33.0272,5.6120,,5.8734,6.0478,5.5583,,5.9015,6.0320,6.0399,244.600,256.3075,135.8711,242.257,272.4514,136.0655,135.9683,0.1424,,0.9186,0.3823, ,, , ,24.6678,,24.6660,,0.8212,81.4393,,,,3.5974E+00,,1.0000E-12,,13.9660,13.9659,0.1150,327.363,95.398,94.482,,,,,,,,,,,,
CalCOFI,2101RL,065,,2101_065d,01-Feb-2021 04:52:07,31-Jan-2021 20:52:07,32.82046,-123.90200,080.0 100.0,080.0,100.0,35.000,35.251,,13.9481,,13.9488,,13.9485,33.0230,,33.0288,33.0217,,33.0237,33.0263,5.6097,,5.8710,6.0453,5.5526,,5.8954,6.0259,6.0356,244.497,256.1997,135.8391,242.008,272.3369,135.9859,135.9125,0.1413,,0.9096,0.3862, ,, , ,24.6714,,24.6702,,0.8160,81.5471,,,,3.4426E+00,,1.0000E-12,,13.9431,13.9438,0.1183,327.047,95.313,94.344,,,,,,,,,,,,
CalCOFI,2101RL,065,,2101_065d,01-Feb-2021 04:52:09,31-Jan-2021 20:52:09,32.82046,-123.90200,080.0 100.0,080.0,100.0,36.000,36.258,,13.9341,,13.9343,,13.9342,33.0229,,33.0287,33.0215,,33.0235,33.0261,5.6157,,5.8773,6.0517,5.5488,,5.8914,6.0219,6.0368,244.759,256.4739,135.9206,241.843,272.6282,135.9331,135.9269,0.1452,,0.9416,0.3717, ,, , ,24.6742,,24.6731,,0.8135,81.5978,,,,3.1426E+00,,1.0000E-12,,13.9290,13.9292,0.1216,326.803,95.389,94.251,,,,,,,,,,,,
CalCOFI,2101RL,065,,2101_065d,01-Feb-2021 04:52:10,31-Jan-2021 20:52:10,32.82048,-123.90198,080.0 100.0,080.0,100.0,37.000,37.266,,13.9277,,13.9278,,13.9278,33.0229,,33.0287,33.0216,,33.0236,33.0262,5.6137,,5.8752,6.0496,5.5529,,5.8957,6.0263,6.0380,244.670,256.3808,135.8929,242.019,272.5293,135.9894,135.9412,0.1439,,0.9309,0.3768, ,, , ,24.6756,,24.6746,,0.8092,81.6849,,,,3.1453E+00,,1.0000E-12,,13.9224,13.9226,0.1249,326.697,95.342,94.308,,,,,,,,,,,,
CalCOFI,2101RL,065,,2101_065d,01-Feb-2021 04:52:12,31-Jan-2021 20:52:12,32.82048,-123.90198,080.0 100.0,080.0,100.0,38.000,38.273,,13.9221,,13.9224,,13.9223,33.0234,,33.0292,33.0219,,33.0239,33.0266,5.6182,,5.8799,6.0543,5.5395,,5.8815,6.0119,6.0331,244.867,256.5870,135.9542,241.436,272.7483,135.8029,135.8786,0.1416,,0.9121,0.3852, ,, , ,24.6771,,24.6759,,0.8105,81.6584,,,,3.4454E+00,,1.0000E-12,,13.9167,13.9170,0.1282,326.578,95.408,94.071,,,,,,,,,,,,
CalCOFI,2101RL,065,,2101_065d,01-Feb-2021 04:52:15,31-Jan-2021 20:52:15,32.82048,-123.90196,080.0 100.0,080.0,100.0,39.000,39.280,,13.9199,,13.9203,,13.9201,33.0248,,33.0306,33.0232,,33.0252,33.0279,5.6147,,5.8762,6.0506,5.5488,,5.8914,6.0219,6.0363,244.711,256.4237,135.9057,241.842,272.5749,135.9328,135.9193,0.1397,,0.8965,0.3916, ,, , ,24.6787,,24.6774,,0.8088,81.6932,,,,2.7686E+00,,1.0000E-12,,13.9144,13.9147,0.1315,326.462,95.344,94.225,,,,,,,,,,,,
CalCOFI,2101RL,065,,2101_065d,01-Feb-2021 04:52:16,31-Jan-2021 20:52:16,32.82049,-123.90197,080.0 100.0,080.0,100.0,40.000,40.287,,13.9116,,13.9120,,13.9118,33.0260,,33.0318,33.0247,,33.0267,33.0293,5.6180,,5.8797,6.0541,5.5524,,5.8952,6.0257,6.0399,244.858,256.5776,135.9514,241.998,272.7383,135.9827,135.9671,0.1377,,0.8801,0.3979, ,, , ,24.6814,,24.6802,,0.8060,81.7512,,,,3.5800E+00,,1.0000E-12,,13.9059,13.9064,0.1348,326.231,95.386,94.272,,,,,,,,,,,,
CalCOFI,2101RL,065,,2101_065d,01-Feb-2021 04:52:18,31-Jan-2021 20:52:18,32.82050,-123.90198,080.0 100.0,080.0,100.0,41.000,41.295,,13.9043,,13.9042,,13.9043,33.0260,,33.0318,33.0246,,33.0266,33.0292,5.6182,,5.8799,6.0543,5.5545,,5.8974,6.0280,6.0412,244.866,256.5859,135.9538,242.090,272.7472,136.0121,135.9830,0.1359,,0.8654,0.4031, ,, , ,24.6829,,24.6818,,0.8009,81.8545,,,,3.2622E+00,,1.0000E-12,,13.8984,13.8984,0.1381,326.111,95.375,94.293,,,,,,,,,,,,
CalCOFI,2101RL,065,,2101_065d,01-Feb-2021 04:52:20,31-Jan-2021 20:52:20,32.82052,-123.90196,080.0 100.0,080.0,100.0,42.000,42.302,,13.9019,,13.9024,,13.9022,33.0258,,33.0316,33.0244,,33.0264,33.0290,5.6040,,5.8650,6.0393,5.5434,,5.8856,6.0161,6.0277,244.247,255.9380,135.7614,241.604,272.0589,135.8566,135.8090,0.1325,,0.8375,0.4118, ,, , ,24.6832,,24.6821,,0.7993,81.8878,,,,3.4245E+00,,1.0000E-12,,13.8960,13.8964,0.1414,326.110,95.129,94.100,,,,,,,,,,,,
CalCOFI,2101RL,065,,2101_065d,01-Feb-2021 04:52:22,31-Jan-2021 20:52:22,32.82052,-123.90196,080.0 100.0,080.0,100.0,43.000,43.309,,13.8990,,13.8992,,13.8991,33.0257,,33.0315,33.0245,,33.0265,33.0290,5.6071,,5.8683,6.0426,5.5389,,5.8809,6.0112,6.0269,244.379,256.0761,135.8024,241.407,272.2057,135.7936,135.7980,0.1304,,0.8203,0.4165, ,, , ,24.6838,,24.6828,,0.7985,81.9052,,,,3.4424E+00,,1.0000E-12,,13.8929,13.8931,0.1446,326.086,95.175,94.017,,,,,,,,,,,,
CalCOFI,2101RL,065,,2101_065d,01-Feb-2021 04:52:24,31-Jan-2021 20:52:24,32.82054,-123.90194,080.0 100.0,080.0,100.0,44.000,44.316,,13.8983,,13.8986,,13.8985,33.0257,,33.0315,33.0244,,33.0264,33.0290,5.6078,,5.8690,6.0433,5.5384,,5.8803,6.0107,6.0270,244.412,256.1107,135.8127,241.389,272.2424,135.7878,135.8003,0.1274,,0.7957,0.4222, ,, , ,24.6840,,24.6829,,0.7963,81.9499,,,,2.9070E+00,,1.0000E-12,,13.8921,13.8924,0.1479,326.092,95.187,94.009,,,,,,,,,,,,
CalCOFI,2101RL,065,,2101_065d,01-Feb-2021 04:52:26,31-Jan-2021 20:52:26,32.82056,-123.90194,080.0 100.0,080.0,100.0,45.000,45.324,,13.8913,,13.8917,,13.8915,33.0269,,33.0327,33.0250,,33.0270,33.0299,5.6003,,5.8612,6.0354,5.5354,,5.8771,6.0075,6.0215,244.085,255.7684,135.7110,241.254,271.8787,135.7446,135.7278,0.1155,,0.6982,0.4334, ,, , ,24.6864,,24.6848,,0.7876,82.1284,,,,3.4979E+00,,1.0000E-12,,13.8850,13.8853,0.1512,325.891,95.047,93.944,,,,,,,,,,,,
CalCOFI,2101RL,065,,2101_065d,01-Feb-2021 04:52:28,31-Jan-2021 20:52:28,32.82058,-123.90194,080.0 100.0,080.0,100.0,46.000,46.331,,13.8800,,13.8803,,13.8802,33.0266,,33.0324,33.0249,,33.0269,33.0297,5.5936,,5.8542,6.0283,5.5262,,5.8674,5.9976,6.0130,243.793,255.4627,135.6202,240.855,271.5540,135.6170,135.6186,0.1081,,0.6376,0.4313, ,, , ,24.6885,,24.6871,,0.7815,82.2527,,,,3.7032E+00,,1.0000E-12,,13.8735,13.8738,0.1545,325.720,94.911,93.767,,,,,,,,,,,,
CalCOFI,2101RL,065,,2101_065d,01-Feb-2021 04:52:29,31-Jan-2021 20:52:29,32.82058,-123.90194,080.0 100.0,080.0,100.0,47.000,47.338,,13.8811,,13.8814,,13.8813,33.0262,,33.0320,33.0248,,33.0268,33.0294,5.5973,,5.8580,6.0322,5.5230,,5.8640,5.9942,6.0132,243.951,255.6281,135.6694,240.713,271.7297,135.5716,135.6205,0.1096,,0.6499,0.4323, ,, , ,24.6880,,24.6868,,0.7846,82.1886,,,,3.6947E+00,,1.0000E-12,,13.8744,13.8748,0.1578,325.792,94.974,93.713,,,,,,,,,,,,
CalCOFI,2101RL,065,,2101_065d,01-Feb-2021 04:52:31,31-Jan-2021 20:52:31,32.82058,-123.90194,080.0 100.0,080.0,100.0,48.000,48.346,,13.8827,,13.8829,,13.8828,33.0263,,33.0321,33.0248,,33.0268,33.0295,5.6009,,5.8618,6.0360,5.5300,,5.8714,6.0017,6.0189,244.111,255.7956,135.7191,241.021,271.9077,135.6701,135.6946,0.1119,,0.6687,0.4333, ,, , ,24.6878,,24.6866,,0.7841,82.2003,,,,3.6947E+00,,1.0000E-12,,13.8759,13.8761,0.1611,325.844,95.040,93.836,,,,,,,,,,,,
CalCOFI,2101RL,065,,2101_065d,01-Feb-2021 04:52:33,31-Jan-2021 20:52:33,32.82059,-123.90194,080.0 100.0,080.0,100.0,49.000,49.353,,13.8819,,13.8821,,13.8820,33.0263,,33.0321,33.0248,,33.0268,33.0295,5.5906,,5.8510,6.0251,5.5388,,5.8808,6.0111,6.0181,243.662,255.3256,135.5795,241.404,271.4084,135.7926,135.6861,0.1146,,0.6908,0.4335, ,, , ,24.6879,,24.6868,,0.7819,82.2436,,,,3.6947E+00,,1.0000E-12,,13.8750,13.8752,0.1645,325.856,94.863,93.984,,,,,,,,,,,,
CalCOFI,2101RL,065,,2101_065d,01-Feb-2021 04:52:37,31-Jan-2021 20:52:37,32.82062,-123.90192,080.0 100.0,080.0,100.0,50.000,50.360,,13.8795,,13.8807,,13.8801,33.0263,,33.0321,33.0249,,33.0269,33.0295,5.5969,,5.8576,6.0318,5.5124,,5.8527,5.9828,6.0073,243.934,255.6103,135.6641,240.253,271.7108,135.4244,135.5443,0.1062,,0.6220,0.4296, ,, , ,24.6884,,24.6871,,0.7799,82.2853,,,,3.6947E+00,,1.0000E-12,,13.8725,13.8736,0.1682,325.835,94.965,93.533,50,,33.0285,, ,0.494,0.165,,,,,
CalCOFI,2101RL,065,,2101_065d,01-Feb-2021 04:52:38,31-Jan-2021 20:52:38,32.82062,-123.90192,080.0 100.0,080.0,100.0,51.000,51.368,,13.8775,,13.8776,,13.8776,33.0263,,33.0321,33.0248,,33.0268,33.0295,5.5780,,5.8378,6.0118,5.5239,,5.8649,5.9952,6.0035,243.112,254.7498,135.4085,240.752,270.7968,135.5841,135.4963,0.1058,,0.6187,0.4292, ,, , ,24.6889,,24.6878,,0.7815,82.2532,,,,3.6947E+00,,1.0000E-12,,13.8702,13.8704,0.1714,325.815,94.641,93.721,,,,,,,,,,,,
CalCOFI,2101RL,065,,2101_065d,01-Feb-2021 04:52:39,31-Jan-2021 20:52:39,32.82062,-123.90192,080.0 100.0,080.0,100.0,52.000,52.375,,13.8759,,13.8749,,13.8754,33.0261,,33.0319,33.0248,,33.0268,33.0294,5.5633,,5.8224,5.9962,5.5395,,5.8815,6.0119,6.0041,242.469,254.0767,135.2086,241.434,270.0817,135.8022,135.5054,0.1049,,0.6114,0.4282, ,, , ,24.6892,,24.6883,,0.7783,82.3181,,,,3.6947E+00,,1.0000E-12,,13.8685,13.8676,0.1747,325.823,94.387,93.982,,,,,,,,,,,,
CalCOFI,2101RL,065,,2101_065d,01-Feb-2021 04:52:40,31-Jan-2021 20:52:40,32.82064,-123.90190,080.0 100.0,080.0,100.0,53.000,53.382,,13.8725,,13.8726,,13.8726,33.0262,,33.0320,33.0247,,33.0267,33.0294,5.5855,,5.8457,6.0197,5.5365,,5.8783,6.0087,6.0142,243.440,255.0932,135.5105,241.305,271.1615,135.7610,135.6358,0.1036,,0.6007,0.4266, ,, , ,24.6899,,24.6888,,0.7762,82.3605,,,,3.6947E+00,,1.0000E-12,,13.8650,13.8651,0.1780,325.780,94.759,93.927,,,,,,,,,,,,